This is the latest recevied weather packets stored in our database for station/object PY3MO-11. If no packets are shown the sender has not sent any weather packets the latest 10 day(s).
| Time | Temp. | Humidity | Pressure | Rain* | Wind** | Luminosity | Snow |
|---|---|---|---|---|---|---|---|
| 1777920541 | 17.78° C | 82% | 1016.3 hPa | 1.02 mm | - | - | - |
| 1777920241 | 17.78° C | 80% | 1015.9 hPa | 0 mm | - | - | - |
| 1777919941 | 17.78° C | 80% | 1016 hPa | 0 mm | - | - | - |
| 1777919641 | 17.78° C | 80% | 1015.7 hPa | 0 mm | - | - | - |
| 1777919341 | 17.78° C | 80% | 1016 hPa | 0 mm | - | - | - |
| 1777919041 | 17.78° C | 80% | 1015.8 hPa | 0 mm | - | - | - |
| 1777918740 | 17.78° C | 80% | 1015.7 hPa | 0 mm | - | - | - |
| 1777918440 | 17.78° C | 79% | 1015.5 hPa | 0 mm | - | - | - |
| 1777918140 | 17.78° C | 78% | 1015.8 hPa | 0 mm | - | - | - |
| 1777917840 | 17.78° C | 78% | 1015.9 hPa | 0 mm | - | - | - |
| 1777917542 | 18.33° C | 76% | 1015.9 hPa | 0 mm | - | - | - |
| 1777917242 | 18.33° C | 75% | 1015.8 hPa | 0 mm | - | - | - |
| 1777916942 | 18.33° C | 74% | 1015.7 hPa | 0 mm | - | - | - |
| 1777916640 | 18.89° C | 74% | 1016.1 hPa | 0 mm | - | - | - |
| 1777916340 | 18.89° C | 74% | 1016 hPa | 0 mm | - | - | - |
| 1777916040 | 18.89° C | 73% | 1016.2 hPa | 0 mm | - | - | - |
| 1777915742 | 18.89° C | 73% | 1016.2 hPa | 0 mm | - | - | - |
| 1777915441 | 19.44° C | 73% | 1016.4 hPa | 0 mm | - | - | - |
| 1777915140 | 18.89° C | 76% | 1016.2 hPa | 0 mm | - | - | - |
| 1777914840 | 18.33° C | 76% | 1016.5 hPa | 0 mm | - | - | - |
| 1777914540 | 18.33° C | 76% | 1016.6 hPa | 0 mm | - | - | - |
| 1777914242 | 18.33° C | 77% | 1016.6 hPa | 0 mm | - | - | - |
| 1777913942 | 17.78° C | 77% | 1016.7 hPa | 0 mm | - | - | - |
| 1777913642 | 17.78° C | 76% | 1017.1 hPa | 0 mm | - | - | - |
| 1777913342 | 17.78° C | 75% | 1017.2 hPa | 0 mm | - | - | - |
* Rain latest hour (hover to see other rain measurements)
** Current wind speed in m/s (hover to see current wind gust speed)